Regional Weather Roundup
Issued by NWS Cleveland, OH

Home | Current Version | Previous Version | Graphics & Text | Print | Product List | Glossary On
Versions: 1 2 3 4 5 6 7 8 9 10 11 12 13 14 15 16 17 18 19 20 21 22 23 24 25 26 27 28 29 30 31 32 33 34 35 36 37 38 39 40 41 42 43 44 45 46 47 48 49 50
000
ASUS41 KCLE 030212
RWRCLE
OHIO REGIONAL WEATHER ROUNDUP
NATIONAL WEATHER SERVICE WILMINGTON, OH
900 PM EST FRI DEC 02 2016

NOTE: "FAIR" INDICATES FEW OR NO CLOUDS BELOW 12,000 FEET WITH NO
SIGNIFICANT WEATHER AND/OR OBSTRUCTIONS TO VISIBILITY.

OHZ001>008-015>018-024>027-034-035-043-044-030300-
   NORTHWEST OHIO

CITY           SKY/WX    TMP DP  RH WIND       PRES   REMARKS
DEFIANCE       MOCLDY    36  27  69 W5        30.25R
FINDLAY        MOCLDY    37  29  72 W12       30.23R
TOLEDO EXPRESS CLOUDY    37  30  75 W8        30.23R
TOLEDO EXEC    CLOUDY    38  30  73 W12       30.23R
LIMA           CLOUDY    37  31  78 W10       30.24R
$$

OHZ009>014-019>023-028>033-038-089-030300-
   NORTHEAST OHIO

CITY           SKY/WX    TMP DP  RH WIND       PRES   REMARKS
CLE-HOPKINS    CLOUDY    40  29  64 W10       30.20R
CLE-LAKEFRONT  CLOUDY    40  30  67 NW21      30.17R
CUY CO. ARPT   CLOUDY    39  32  75 NW15G25   30.16R
LORAIN-ELYRIA  CLOUDY    37  28  70 NW12G23   30.20R
ASHTABULA      CLOUDY    38  31  76 W12       30.12R
AKRON-CANTON   CLOUDY    37  29  72 NW15      30.17R
WOOSTER        FAIR      33  29  85 W9        30.19R WCI  25
MANSFIELD      FAIR      34  30  85 W7        30.20R WCI  28
YOUNGSTOWN     CLOUDY    37  32  82 W12       30.13R
$$

OHZ042-051>053-060>062-070>072-077>081-030300-
  SOUTHWEST OHIO

CITY           SKY/WX    TMP DP  RH WIND       PRES   REMARKS
CINC-COVINGTON CLOUDY    39  31  72 NW9       30.29S
CINC-LUNKEN    CLOUDY    41  31  67 CALM      30.32R
HAMILTON       CLOUDY    40  30  67 W6        30.31R
DAYTON         CLOUDY    36  31  82 W12       30.28R
WRIGHT-PAT AFB CLOUDY    38  32  78 W9        30.27R
DAYTON GENERAL CLOUDY    38  29  70 W7        30.28R
WILMINGTON     CLOUDY    37  31  78 W7        30.27S
$$

OHZ036-037-039>041-045>050-054>059-063>069-073>076-082>088-030300-
  CENTRAL AND SOUTHEAST OHIO

CITY           SKY/WX    TMP DP  RH WIND       PRES   REMARKS
COLUMBUS       CLOUDY    38  31  76 W10       30.24R
OSU AIRPORT    CLOUDY    38  31  76 W10       30.24R
BOLTON FIELD   CLOUDY    37  31  77 W7        30.26R
RICKENBACK AFB CLOUDY    37  30  75 W7        30.26R
NEWARK         CLOUDY    38  30  73 W8        30.23R
MARION         CLOUDY    37  31  78 W7        30.23R
LANCASTER      CLOUDY    38  30  73 W9        30.26R
ZANESVILLE     CLOUDY    38  30  73 W9        30.23R
NEW PHILLY     CLOUDY    37  33  85 W8        30.21R
$$



USA.gov is the U.S. government's official web portal to all federal, state and local government web resources and services.